TimeCST,TemperatureF,Dew PointF,Humidity,Sea Level PressureIn,VisibilityMPH,Wind Direction,Wind SpeedMPH,Gust SpeedMPH,PrecipitationIn,Events,Conditions,WindDirDegrees,DateUTC
12:52 AM,30.2,24.8,80,30.35,10.0,NNW,4.6,-,N/A,,Clear,340,2013-01-03 06:52:00
1:52 AM,30.0,24.1,79,30.37,10.0,West,3.5,-,N/A,,Clear,260,2013-01-03 07:52:00
2:52 AM,28.0,24.1,85,30.39,10.0,West,5.8,-,N/A,,Clear,260,2013-01-03 08:52:00
3:52 AM,28.0,24.1,85,30.40,10.0,WNW,8.1,-,N/A,,Clear,290,2013-01-03 09:52:00
4:52 AM,28.0,24.1,85,30.41,10.0,WNW,10.4,-,N/A,,Clear,300,2013-01-03 10:52:00
5:52 AM,27.0,23.0,85,30.43,10.0,WNW,8.1,-,N/A,,Clear,290,2013-01-03 11:52:00
6:52 AM,26.1,23.0,88,30.46,10.0,WNW,8.1,-,N/A,,Clear,300,2013-01-03 12:52:00
7:52 AM,25.0,21.9,88,30.48,10.0,NW,6.9,-,N/A,,Clear,310,2013-01-03 13:52:00
8:52 AM,28.9,24.1,82,30.48,10.0,WNW,6.9,-,N/A,,Clear,300,2013-01-03 14:52:00
9:52 AM,32.0,27.0,82,30.51,10.0,NNW,4.6,-,N/A,,Clear,330,2013-01-03 15:52:00
10:52 AM,37.9,25.0,60,30.52,10.0,NNE,4.6,-,N/A,,Clear,20,2013-01-03 16:52:00
11:52 AM,42.1,27.0,55,30.48,10.0,North,4.6,-,N/A,,Partly Cloudy,10,2013-01-03 17:52:00
12:52 PM,42.1,24.1,49,30.45,10.0,NNE,9.2,-,N/A,,Scattered Clouds,30,2013-01-03 18:52:00
1:52 PM,45.0,25.0,46,30.43,10.0,NNE,8.1,-,N/A,,Mostly Cloudy,20,2013-01-03 19:52:00
2:52 PM,45.0,21.9,40,30.43,10.0,NNE,10.4,-,N/A,,Mostly Cloudy,20,2013-01-03 20:52:00
3:52 PM,46.0,21.0,37,30.44,10.0,NNE,11.5,-,N/A,,Mostly Cloudy,20,2013-01-03 21:52:00
4:52 PM,45.0,21.0,39,30.44,10.0,NNE,8.1,-,N/A,,Scattered Clouds,30,2013-01-03 22:52:00
5:52 PM,39.9,23.0,51,30.46,10.0,ENE,3.5,-,N/A,,Partly Cloudy,60,2013-01-03 23:52:00
6:52 PM,37.0,21.9,54,30.46,10.0,Calm,Calm,-,N/A,,Partly Cloudy,0,2013-01-04 00:52:00
7:52 PM,36.0,23.0,59,30.46,10.0,Calm,Calm,-,N/A,,Partly Cloudy,0,2013-01-04 01:52:00
8:52 PM,37.0,21.9,54,30.48,10.0,Calm,Calm,-,N/A,,Partly Cloudy,0,2013-01-04 02:52:00
9:52 PM,30.0,23.0,75,30.46,10.0,North,4.6,-,N/A,,Clear,10,2013-01-04 03:52:00
10:52 PM,33.1,24.1,70,30.48,10.0,NNW,4.6,-,N/A,,Overcast,340,2013-01-04 04:52:00
11:52 PM,33.1,24.1,70,30.47,10.0,North,3.5,-,N/A,,Scattered Clouds,10,2013-01-04 05:52:00